START_TIME,STEP,MOV.,M15,t_acc.,M20,t_acc.
1979-07-19 00:01:07.790 ,0,0,0.,24.0,0.,24.0
1979-07-19 00:01:31.790 ,0,0,0.,24.0,0.,24.0
1979-07-19 00:01:55.790 ,2,1,0.,24.0,0.,24.0
1979-07-19 00:02:19.790 ,2,0,0.,24.0,0.,24.0
1979-07-19 00:02:43.790 ,3,1,0.,24.0,0.,24.0
1979-07-19 00:03:07.790 ,3,0,0.,24.0,0.,24.0
1979-07-19 00:03:31.790 ,4,1,0.,24.0,0.,24.0
1979-07-19 00:03:55.790 ,4,0,0.,24.0,0.,24.0
1979-07-19 00:04:19.790 ,5,1,0.,24.0,0.,24.0
1979-07-19 00:04:43.790 ,5,0,0.,24.0,0.,24.0
1979-07-19 00:05:07.790 ,6,1,0.,24.0,0.,24.0
1979-07-19 00:05:31.790 ,6,0,0.,24.0,0.,24.0
1979-07-19 00:05:55.790 ,7,1,0.,24.0,0.,24.0
1979-07-19 00:06:19.790 ,7,0,0.,24.0,0.,24.0
1979-07-19 00:06:43.790 ,7,1,0.,24.0,0.,24.0
1979-07-19 00:07:07.790 ,7,0,0.,24.0,0.,24.0
1979-07-19 00:07:31.790 ,6,1,0.,24.0,0.,24.0
1979-07-19 00:07:55.790 ,6,0,0.,24.0,0.,24.0
1979-07-19 00:08:19.790 ,5,1,0.,24.0,0.,24.0
1979-07-19 00:08:43.790 ,5,0,0.,24.0,0.,24.0
1979-07-19 00:09:07.790 ,4,1,0.,24.0,0.,24.0
1979-07-19 00:09:31.790 ,4,0,0.,24.0,0.,24.0
1979-07-19 00:09:55.790 ,3,1,0.,24.0,0.,24.0
1979-07-19 00:10:19.790 ,3,0,0.,24.0,0.,24.0
1979-07-19 00:10:43.790 ,2,1,0.,24.0,0.,24.0
1979-07-19 00:11:07.790 ,2,0,0.,24.0,0.,24.0
1979-07-19 00:11:31.790 ,1,1,0.,24.0,0.,24.0
1979-07-19 00:11:55.790 ,1,0,0.,24.0,0.,24.0
1979-07-19 00:12:19.790 ,0,1,0.,24.0,0.,24.0
1979-07-19 00:12:43.790 ,0,0,0.,24.0,0.,24.0
1979-07-19 00:13:07.790 ,0,1,0.,24.0,0.,24.0
1979-07-19 00:13:31.790 ,0,0,0.,24.0,0.,24.0
1979-07-19 00:13:55.790 ,1,1,0.,24.0,0.,24.0
1979-07-19 00:14:19.790 ,1,0,0.,24.0,0.,24.0
1979-07-19 00:14:43.790 ,2,1,0.,24.0,0.,24.0
1979-07-19 00:15:07.790 ,2,0,0.,24.0,0.,24.0
1979-07-19 00:15:31.790 ,3,1,0.,24.0,0.,24.0
1979-07-19 00:15:55.790 ,3,0,0.,24.0,0.,24.0
1979-07-19 00:16:19.790 ,4,1,0.,24.0,0.,24.0
1979-07-19 00:16:43.790 ,4,0,0.,24.0,0.,24.0
1979-07-19 00:17:07.790 ,5,1,0.,24.0,0.,24.0
1979-07-19 00:17:31.790 ,5,0,0.,24.0,0.,24.0
1979-07-19 00:17:55.790 ,6,1,0.,24.0,0.,24.0
1979-07-19 00:18:19.790 ,6,0,0.,24.0,0.,24.0
1979-07-19 00:18:43.790 ,7,0,0.,24.0,0.,24.0
1979-07-19 00:19:07.790 ,7,0,0.,24.0,0.,24.0
1979-07-19 00:19:31.790 ,3,1,0.,24.0,0.,24.0
1979-07-19 00:19:55.790 ,0,1,0.,24.0,0.,24.0
1979-07-19 00:20:19.790 ,4,1,0.,24.0,0.,24.0
1979-07-19 00:20:43.790 ,7,1,0.,24.0,0.,24.0
1979-07-19 00:21:07.790 ,3,1,0.,24.0,0.,24.0
1979-07-19 00:21:31.790 ,0,1,0.,24.0,0.,24.0
1979-07-19 00:21:55.790 ,4,1,0.,24.0,0.,24.0
1979-07-19 00:22:19.790 ,7,1,0.,24.0,0.,24.0
1979-07-19 00:22:43.790 ,3,1,0.,24.0,0.,24.0
1979-07-19 00:23:07.790 ,0,1,0.,24.0,0.,24.0
1979-07-19 00:23:31.790 ,4,1,0.,24.0,0.,24.0
1979-07-19 00:23:55.790 ,7,1,0.,24.0,0.,24.0
1979-07-19 00:24:19.790 ,3,1,0.,24.0,0.,24.0
1979-07-19 00:24:43.790 ,0,1,0.,24.0,0.,24.0
1979-07-19 00:25:07.790 ,4,1,0.,24.0,0.,24.0
1979-07-19 00:25:31.790 ,7,1,0.,24.0,0.,24.0
1979-07-19 00:25:55.790 ,3,1,0.,24.0,0.,24.0
1979-07-19 00:26:19.790 ,0,1,0.,24.0,0.,24.0
1979-07-19 00:26:43.790 ,4,1,0.,24.0,0.,24.0
1979-07-19 00:27:07.790 ,7,1,0.,24.0,0.,24.0
1979-07-19 00:27:31.790 ,3,1,0.,24.0,0.,24.0
1979-07-19 00:27:55.790 ,0,1,0.,24.0,0.,24.0
1979-07-19 00:28:19.790 ,4,1,0.,24.0,0.,24.0
1979-07-19 00:28:43.790 ,7,1,0.,24.0,0.,24.0
1979-07-19 00:29:07.790 ,3,1,0.,24.0,0.,24.0
1979-07-19 00:29:31.790 ,0,1,0.,24.0,0.,24.0
1979-07-19 00:29:55.790 ,0,0,0.,24.0,0.,24.0
1979-07-19 00:30:19.790 ,0,0,0.,24.0,0.,24.0
1979-07-19 00:30:43.790 ,5,1,0.,24.0,0.,24.0
1979-07-19 00:31:07.790 ,5,0,0.,24.0,0.,24.0
1979-07-19 00:31:31.790 ,4,1,0.,24.0,0.,24.0
1979-07-19 00:31:55.790 ,4,0,0.,24.0,0.,24.0
1979-07-19 00:32:19.790 ,3,1,0.,24.0,0.,24.0
1979-07-19 00:32:43.790 ,3,0,0.,24.0,0.,24.0
1979-07-19 00:33:07.790 ,2,1,0.,24.0,0.,24.0
1979-07-19 00:33:31.790 ,2,0,0.,24.0,0.,24.0
1979-07-19 00:33:55.790 ,1,1,0.,24.0,0.,24.0
1979-07-19 00:34:19.780 ,1,0,0.,24.0,0.,24.0
1979-07-19 00:34:43.780 ,0,1,0.,24.0,0.,24.0
1979-07-19 00:35:07.780 ,0,0,0.,24.0,0.,24.0
1979-07-19 00:35:31.780 ,0,1,0.,24.0,0.,24.0
1979-07-19 00:35:55.780 ,0,0,0.,24.0,0.,24.0
1979-07-19 00:36:19.780 ,1,1,0.,24.0,0.,24.0
1979-07-19 00:36:43.780 ,1,0,0.,24.0,0.,24.0
1979-07-19 00:37:07.780 ,2,1,0.,24.0,0.,24.0
1979-07-19 00:37:31.780 ,2,0,0.,24.0,0.,24.0
1979-07-19 00:37:55.780 ,3,1,0.,24.0,0.,24.0
1979-07-19 00:38:19.780 ,3,0,0.,24.0,0.,24.0
1979-07-19 00:38:43.780 ,4,1,0.,24.0,0.,24.0
1979-07-19 00:39:07.780 ,4,0,1.,24.0,0.,24.0
1979-07-19 00:39:31.780 ,5,1,0.,24.0,0.,24.0
1979-07-19 00:39:55.780 ,5,0,0.,24.0,0.,24.0
1979-07-19 00:40:19.780 ,6,1,0.,24.0,0.,24.0
1979-07-19 00:40:43.780 ,6,0,0.,24.0,0.,24.0
1979-07-19 00:41:07.780 ,7,1,0.,24.0,0.,24.0
1979-07-19 00:41:31.780 ,7,0,0.,24.0,0.,24.0
1979-07-19 00:41:55.780 ,7,1,0.,24.0,0.,24.0
1979-07-19 00:42:19.780 ,7,0,0.,24.0,0.,24.0
1979-07-19 00:42:43.780 ,6,1,0.,24.0,0.,24.0
1979-07-19 00:43:07.780 ,6,0,0.,24.0,0.,24.0
1979-07-19 00:43:31.780 ,5,1,0.,24.0,0.,24.0
1979-07-19 00:43:55.780 ,5,0,0.,24.0,0.,24.0
1979-07-19 00:44:19.780 ,4,1,0.,24.0,0.,24.0
1979-07-19 00:44:43.780 ,4,0,0.,24.0,0.,24.0
1979-07-19 00:45:07.780 ,3,1,0.,24.0,0.,24.0
1979-07-19 00:45:31.780 ,3,0,0.,24.0,0.,24.0
1979-07-19 00:45:55.780 ,2,1,0.,24.0,0.,24.0
1979-07-19 00:46:19.780 ,2,0,0.,24.0,0.,24.0
1979-07-19 00:46:43.780 ,1,1,0.,24.0,0.,24.0
1979-07-19 00:47:07.780 ,1,0,0.,24.0,0.,24.0
1979-07-19 00:47:31.780 ,0,1,0.,24.0,0.,24.0
1979-07-19 00:47:55.780 ,0,0,0.,24.0,0.,24.0
1979-07-19 00:48:19.780 ,0,1,0.,24.0,0.,24.0
1979-07-19 00:48:43.780 ,0,0,0.,24.0,0.,24.0
1979-07-19 00:49:07.780 ,1,1,0.,24.0,0.,24.0
1979-07-19 00:49:31.780 ,1,0,0.,24.0,0.,24.0
1979-07-19 00:49:55.780 ,2,1,0.,24.0,0.,24.0
1979-07-19 00:50:19.780 ,2,0,0.,24.0,0.,24.0
1979-07-19 00:50:43.780 ,3,1,0.,24.0,0.,24.0
1979-07-19 00:51:07.780 ,3,0,0.,24.0,0.,24.0
1979-07-19 00:51:31.780 ,4,1,0.,24.0,0.,24.0
1979-07-19 00:51:55.780 ,4,0,0.,24.0,0.,24.0
1979-07-19 00:52:19.780 ,5,1,0.,24.0,0.,24.0
1979-07-19 00:52:43.780 ,5,0,0.,24.0,0.,24.0
1979-07-19 00:53:07.780 ,6,1,0.,24.0,0.,24.0
1979-07-19 00:53:31.780 ,6,0,0.,24.0,0.,24.0
1979-07-19 00:53:55.780 ,7,1,0.,24.0,0.,24.0
1979-07-19 00:54:19.780 ,7,0,0.,24.0,0.,24.0
1979-07-19 00:54:43.780 ,7,1,0.,24.0,0.,24.0
1979-07-19 00:55:07.780 ,7,0,0.,24.0,0.,24.0
1979-07-19 00:55:31.780 ,6,1,0.,24.0,0.,24.0
1979-07-19 00:55:55.780 ,6,0,0.,24.0,0.,24.0
1979-07-19 00:56:19.780 ,5,1,0.,24.0,0.,24.0
1979-07-19 00:56:43.780 ,5,0,0.,24.0,0.,24.0
1979-07-19 00:57:07.780 ,4,1,0.,24.0,0.,24.0
1979-07-19 00:57:31.780 ,4,0,0.,24.0,0.,24.0
1979-07-19 00:57:55.780 ,3,1,0.,24.0,0.,24.0
1979-07-19 00:58:19.780 ,3,0,0.,24.0,0.,24.0
1979-07-19 00:58:43.780 ,2,1,0.,24.0,0.,24.0
1979-07-19 00:59:07.780 ,2,0,0.,24.0,0.,24.0
1979-07-19 00:59:31.780 ,1,1,0.,24.0,0.,24.0
1979-07-19 00:59:55.780 ,1,0,0.,24.0,0.,24.0
1979-07-19 01:00:19.780 ,0,1,0.,24.0,0.,24.0
1979-07-19 01:00:43.780 ,0,0,0.,24.0,0.,24.0
1979-07-19 01:01:07.780 ,0,1,0.,24.0,0.,24.0
1979-07-19 01:01:31.780 ,0,0,0.,24.0,0.,24.0
1979-07-19 01:01:55.780 ,1,1,0.,24.0,0.,24.0
1979-07-19 01:02:19.780 ,1,0,0.,24.0,0.,24.0
1979-07-19 01:02:43.780 ,2,1,0.,24.0,0.,24.0
1979-07-19 01:03:07.780 ,2,0,0.,24.0,0.,24.0
1979-07-19 01:03:31.780 ,3,1,0.,24.0,0.,24.0
1979-07-19 01:03:55.780 ,3,0,0.,24.0,0.,24.0
1979-07-19 01:04:19.780 ,4,1,0.,24.0,0.,24.0
1979-07-19 01:04:43.780 ,4,0,0.,24.0,0.,24.0
1979-07-19 01:05:07.780 ,5,1,0.,24.0,0.,24.0
1979-07-19 01:05:31.780 ,5,0,0.,24.0,0.,24.0
1979-07-19 01:05:55.780 ,6,1,0.,24.0,0.,24.0
1979-07-19 01:06:19.780 ,6,0,0.,24.0,0.,24.0
1979-07-19 01:06:43.780 ,7,0,0.,24.0,0.,24.0
1979-07-19 01:07:07.780 ,7,0,0.,24.0,0.,24.0
1979-07-19 01:07:31.780 ,3,1,0.,24.0,0.,24.0
1979-07-19 01:07:55.780 ,0,1,0.,24.0,0.,24.0
1979-07-19 01:08:19.780 ,4,1,0.,24.0,0.,24.0
1979-07-19 01:08:43.780 ,7,1,0.,24.0,0.,24.0
1979-07-19 01:09:07.780 ,3,1,0.,24.0,0.,24.0
1979-07-19 01:09:31.780 ,0,1,0.,24.0,0.,24.0
1979-07-19 01:09:55.780 ,4,1,0.,24.0,0.,24.0
1979-07-19 01:10:19.780 ,7,1,0.,24.0,0.,24.0
1979-07-19 01:10:43.780 ,3,1,0.,24.0,0.,24.0
1979-07-19 01:11:07.780 ,0,1,0.,24.0,0.,24.0
1979-07-19 01:11:31.780 ,4,1,0.,24.0,0.,24.0
1979-07-19 01:11:55.780 ,7,1,0.,24.0,0.,24.0
1979-07-19 01:12:19.780 ,3,1,0.,24.0,0.,24.0
1979-07-19 01:12:43.780 ,0,1,0.,24.0,0.,24.0
1979-07-19 01:13:07.780 ,4,1,0.,24.0,0.,24.0
1979-07-19 01:13:31.780 ,7,1,0.,24.0,0.,24.0
1979-07-19 01:13:55.780 ,3,1,0.,24.0,0.,24.0
1979-07-19 01:14:19.780 ,0,1,0.,24.0,0.,24.0
1979-07-19 01:14:43.780 ,4,1,0.,24.0,0.,24.0
1979-07-19 01:15:07.780 ,7,1,0.,24.0,0.,24.0
1979-07-19 01:15:31.780 ,3,1,0.,24.0,0.,24.0
1979-07-19 01:15:55.780 ,0,1,0.,24.0,0.,24.0
1979-07-19 01:16:19.780 ,4,1,0.,24.0,0.,24.0
1979-07-19 01:16:43.780 ,7,1,0.,24.0,0.,24.0
1979-07-19 01:17:07.780 ,3,1,0.,24.0,0.,24.0
1979-07-19 01:17:31.780 ,0,1,0.,24.0,0.,24.0
1979-07-19 01:17:55.780 ,0,0,0.,24.0,0.,24.0
1979-07-19 01:18:19.780 ,0,0,0.,24.0,0.,24.0
1979-07-19 01:18:43.780 ,5,1,0.,24.0,0.,24.0
1979-07-19 01:19:07.780 ,5,0,0.,24.0,0.,24.0
1979-07-19 01:19:31.780 ,4,1,0.,24.0,0.,24.0
1979-07-19 01:19:55.780 ,4,0,0.,24.0,0.,24.0
1979-07-19 01:20:19.780 ,3,1,0.,24.0,0.,24.0
1979-07-19 01:20:43.780 ,3,0,0.,24.0,0.,24.0
1979-07-19 01:21:07.780 ,2,1,0.,24.0,0.,24.0
1979-07-19 01:21:31.780 ,2,0,0.,24.0,0.,24.0
1979-07-19 01:21:55.780 ,1,1,0.,24.0,0.,24.0
1979-07-19 01:22:19.780 ,1,0,0.,24.0,0.,24.0
1979-07-19 01:22:43.780 ,0,1,0.,24.0,0.,24.0
1979-07-19 01:23:07.780 ,0,0,0.,24.0,0.,24.0
1979-07-19 01:23:31.780 ,0,1,0.,24.0,0.,24.0
1979-07-19 01:23:55.780 ,0,0,0.,24.0,0.,24.0
1979-07-19 01:24:19.780 ,1,1,0.,24.0,0.,24.0
1979-07-19 01:24:43.780 ,1,0,0.,24.0,0.,24.0
1979-07-19 01:25:07.780 ,2,1,0.,24.0,0.,24.0
1979-07-19 01:25:31.780 ,2,0,0.,24.0,0.,24.0
1979-07-19 01:25:55.780 ,3,1,0.,24.0,0.,24.0
1979-07-19 01:26:19.780 ,3,0,0.,24.0,0.,24.0
1979-07-19 01:26:43.780 ,4,1,0.,24.0,0.,24.0
1979-07-19 01:27:07.780 ,4,0,0.,24.0,0.,24.0
1979-07-19 01:27:31.780 ,5,1,0.,24.0,0.,24.0
1979-07-19 01:27:55.780 ,5,0,0.,24.0,0.,24.0
1979-07-19 01:28:19.780 ,6,1,0.,24.0,0.,24.0
1979-07-19 01:28:43.780 ,6,0,0.,24.0,0.,24.0
1979-07-19 01:29:07.780 ,7,1,0.,24.0,0.,24.0
1979-07-19 01:29:31.780 ,7,0,0.,24.0,0.,24.0
1979-07-19 01:29:55.780 ,7,1,0.,24.0,0.,24.0
1979-07-19 01:30:19.780 ,7,0,0.,24.0,0.,24.0
1979-07-19 01:30:43.780 ,6,1,0.,24.0,0.,24.0
1979-07-19 01:31:07.780 ,6,0,0.,24.0,0.,24.0
1979-07-19 01:31:31.780 ,5,1,0.,24.0,0.,24.0
1979-07-19 01:31:55.780 ,5,0,0.,24.0,0.,24.0
1979-07-19 01:32:19.780 ,4,1,0.,24.0,0.,24.0
1979-07-19 01:32:43.780 ,4,0,0.,24.0,0.,24.0
1979-07-19 01:33:07.780 ,3,1,0.,24.0,0.,24.0
1979-07-19 01:33:31.780 ,3,0,0.,24.0,0.,24.0
1979-07-19 01:33:55.780 ,2,1,0.,24.0,0.,24.0
1979-07-19 01:34:19.780 ,2,0,0.,24.0,0.,24.0
1979-07-19 01:34:43.780 ,1,1,0.,24.0,0.,24.0
1979-07-19 01:35:07.780 ,1,0,0.,24.0,0.,24.0
1979-07-19 01:35:31.780 ,0,1,0.,24.0,0.,24.0
1979-07-19 01:35:55.780 ,0,0,0.,24.0,0.,24.0
1979-07-19 01:36:19.780 ,0,1,0.,24.0,0.,24.0
1979-07-19 01:36:43.780 ,0,0,0.,24.0,0.,24.0
1979-07-19 01:37:07.780 ,1,1,0.,24.0,0.,24.0
1979-07-19 01:37:31.780 ,1,0,0.,24.0,0.,24.0
1979-07-19 01:37:55.780 ,2,1,0.,24.0,0.,24.0
1979-07-19 01:38:19.780 ,2,0,0.,24.0,0.,24.0
1979-07-19 01:38:43.780 ,3,1,0.,24.0,0.,24.0
1979-07-19 01:39:07.780 ,3,0,0.,24.0,0.,24.0
1979-07-19 01:39:31.780 ,4,1,0.,24.0,0.,24.0
1979-07-19 01:39:55.780 ,4,0,0.,24.0,0.,24.0
1979-07-19 01:40:19.780 ,5,1,0.,24.0,0.,24.0
1979-07-19 01:40:43.780 ,5,0,0.,24.0,0.,24.0
1979-07-19 01:41:07.780 ,6,1,0.,24.0,0.,24.0
1979-07-19 01:41:31.780 ,6,0,0.,24.0,0.,24.0
1979-07-19 01:41:55.780 ,7,1,0.,24.0,0.,24.0
1979-07-19 01:42:19.780 ,7,0,0.,24.0,0.,24.0
1979-07-19 01:42:43.780 ,7,1,0.,24.0,0.,24.0
1979-07-19 01:43:07.780 ,7,0,0.,24.0,0.,24.0
1979-07-19 01:43:31.780 ,6,1,0.,24.0,0.,24.0
1979-07-19 01:43:55.780 ,6,0,0.,24.0,0.,24.0
1979-07-19 01:44:19.780 ,5,1,0.,24.0,0.,24.0
1979-07-19 01:44:43.780 ,5,0,0.,24.0,0.,24.0
1979-07-19 01:45:07.780 ,4,1,0.,24.0,0.,24.0
1979-07-19 01:45:31.780 ,4,0,0.,24.0,0.,24.0
1979-07-19 01:45:55.780 ,3,1,0.,24.0,0.,24.0
1979-07-19 01:46:19.780 ,3,0,0.,24.0,0.,24.0
1979-07-19 01:46:43.780 ,2,1,0.,24.0,0.,24.0
1979-07-19 01:47:07.780 ,2,0,0.,24.0,0.,24.0
1979-07-19 01:47:31.780 ,1,1,0.,24.0,0.,24.0
1979-07-19 01:47:55.780 ,1,0,0.,24.0,0.,24.0
1979-07-19 01:48:19.780 ,0,1,0.,24.0,0.,24.0
1979-07-19 01:48:43.780 ,0,0,0.,24.0,0.,24.0
1979-07-19 01:49:07.780 ,0,1,0.,24.0,0.,24.0
1979-07-19 01:49:31.780 ,0,0,0.,24.0,0.,24.0
1979-07-19 01:49:55.780 ,1,1,0.,24.0,0.,24.0
1979-07-19 01:50:19.780 ,1,0,0.,24.0,0.,24.0
1979-07-19 01:50:43.780 ,2,1,0.,24.0,0.,24.0
1979-07-19 01:51:07.780 ,2,0,0.,24.0,0.,24.0
1979-07-19 01:51:31.780 ,3,1,0.,24.0,0.,24.0
1979-07-19 01:51:55.780 ,3,0,0.,24.0,0.,24.0
1979-07-19 01:52:19.780 ,4,1,0.,24.0,0.,24.0
1979-07-19 01:52:43.780 ,4,0,0.,24.0,0.,24.0
1979-07-19 01:53:07.780 ,5,1,0.,24.0,0.,24.0
1979-07-19 01:53:31.780 ,5,0,0.,24.0,0.,24.0
1979-07-19 01:53:55.780 ,6,1,0.,24.0,0.,24.0
1979-07-19 01:54:19.780 ,6,0,0.,24.0,0.,24.0
1979-07-19 01:54:43.780 ,7,0,0.,24.0,0.,24.0
1979-07-19 01:55:07.780 ,7,0,0.,24.0,0.,24.0
1979-07-19 01:55:31.780 ,3,1,0.,24.0,0.,24.0
1979-07-19 01:55:55.780 ,0,1,0.,24.0,0.,24.0
1979-07-19 01:56:19.780 ,4,1,0.,24.0,0.,24.0
1979-07-19 01:56:43.780 ,7,1,0.,24.0,0.,24.0
1979-07-19 01:57:07.780 ,3,1,0.,24.0,0.,24.0
1979-07-19 01:57:31.780 ,0,1,0.,24.0,0.,24.0
1979-07-19 01:57:55.780 ,4,1,0.,24.0,0.,24.0
1979-07-19 01:58:19.780 ,7,1,0.,24.0,0.,24.0
1979-07-19 01:58:43.780 ,3,1,0.,24.0,0.,24.0
1979-07-19 01:59:07.780 ,0,1,0.,24.0,0.,24.0
1979-07-19 01:59:31.780 ,0,0,,0,,0
1979-07-19 01:59:55.780 ,0,0,,0,,0
1979-07-19 01:59:55.780 ,7,1,0.,24.0,0.,24.0
1979-07-19 02:00:19.780 ,3,1,0.,24.0,0.,24.0
1979-07-19 02:00:43.780 ,0,1,0.,24.0,0.,24.0
1979-07-19 02:01:07.780 ,4,1,0.,24.0,0.,24.0
1979-07-19 02:01:31.780 ,0,0,0.,24.0,0.,24.0
1979-07-19 02:02:53.380 ,0,0,0.,24.0,0.,24.0
1979-07-19 02:03:07.780 ,7,1,0.,24.0,0.,24.0
1979-07-19 02:03:31.780 ,3,1,0.,24.0,0.,24.0
1979-07-19 02:03:55.780 ,0,1,0.,24.0,0.,24.0
1979-07-19 02:04:19.780 ,4,1,0.,24.0,0.,24.0
1979-07-19 02:04:43.780 ,7,1,0.,24.0,0.,24.0
1979-07-19 02:05:07.780 ,3,1,0.,24.0,0.,24.0
1979-07-19 02:05:31.780 ,0,1,0.,24.0,0.,24.0
1979-07-19 02:05:55.780 ,0,0,0.,24.0,0.,24.0
1979-07-19 02:06:19.780 ,0,0,0.,24.0,0.,24.0
1979-07-19 02:06:43.780 ,5,1,0.,24.0,0.,24.0
1979-07-19 02:07:07.780 ,5,0,0.,24.0,0.,24.0
1979-07-19 02:07:31.780 ,4,1,0.,24.0,0.,24.0
1979-07-19 02:07:55.780 ,4,0,0.,24.0,0.,24.0
1979-07-19 02:08:19.780 ,3,1,0.,24.0,0.,24.0
1979-07-19 02:08:43.780 ,3,0,0.,24.0,0.,24.0
1979-07-19 02:09:07.780 ,2,1,0.,24.0,0.,24.0
1979-07-19 02:09:31.780 ,2,0,0.,24.0,0.,24.0
1979-07-19 02:09:55.780 ,1,1,0.,24.0,0.,24.0
1979-07-19 02:10:19.780 ,1,0,0.,24.0,0.,24.0
1979-07-19 02:10:43.780 ,0,1,0.,24.0,0.,24.0
1979-07-19 02:11:07.780 ,0,0,0.,24.0,0.,24.0
1979-07-19 02:11:31.780 ,0,1,0.,24.0,0.,24.0
1979-07-19 02:11:55.780 ,0,0,0.,24.0,0.,24.0
1979-07-19 02:12:19.780 ,1,1,0.,24.0,0.,24.0
1979-07-19 02:12:43.780 ,1,0,0.,24.0,0.,24.0
1979-07-19 02:13:07.780 ,2,1,0.,24.0,0.,24.0
1979-07-19 02:13:31.780 ,2,0,0.,24.0,0.,24.0
1979-07-19 02:13:55.780 ,3,1,0.,24.0,0.,24.0
1979-07-19 02:14:19.780 ,3,0,0.,24.0,0.,24.0
1979-07-19 02:14:43.780 ,4,1,0.,24.0,0.,24.0
1979-07-19 02:15:07.780 ,4,0,0.,24.0,0.,24.0
1979-07-19 02:15:31.780 ,5,1,0.,24.0,0.,24.0
1979-07-19 02:15:55.780 ,5,0,0.,24.0,0.,24.0
1979-07-19 02:16:19.780 ,6,1,0.,24.0,0.,24.0
1979-07-19 02:16:43.780 ,6,0,0.,24.0,0.,24.0
1979-07-19 02:17:07.780 ,7,1,0.,24.0,0.,24.0
1979-07-19 02:17:31.780 ,7,0,0.,24.0,0.,24.0
1979-07-19 02:17:55.780 ,7,1,0.,24.0,0.,24.0
1979-07-19 02:18:19.780 ,7,0,0.,24.0,0.,24.0
1979-07-19 02:18:43.780 ,6,1,0.,24.0,0.,24.0
1979-07-19 02:19:07.780 ,6,0,0.,24.0,0.,24.0
1979-07-19 02:19:31.780 ,5,1,0.,24.0,0.,24.0
1979-07-19 02:19:55.780 ,5,0,0.,24.0,0.,24.0
1979-07-19 02:20:19.780 ,4,1,0.,24.0,0.,24.0
1979-07-19 02:20:43.780 ,4,0,0.,24.0,0.,24.0
1979-07-19 02:21:07.780 ,3,1,0.,24.0,0.,24.0
1979-07-19 02:21:31.780 ,3,0,0.,24.0,0.,24.0
1979-07-19 02:21:55.780 ,2,1,0.,24.0,0.,24.0
1979-07-19 02:22:19.780 ,2,0,0.,24.0,0.,24.0
1979-07-19 02:22:43.780 ,1,1,0.,24.0,0.,24.0
1979-07-19 02:23:07.780 ,1,0,0.,24.0,0.,24.0
1979-07-19 02:23:31.780 ,0,1,0.,24.0,0.,24.0
1979-07-19 02:23:55.780 ,0,0,0.,24.0,0.,24.0
1979-07-19 02:24:19.780 ,0,1,1.,24.0,0.,24.0
1979-07-19 02:24:43.780 ,0,0,0.,24.0,0.,24.0
1979-07-19 02:25:07.780 ,1,1,0.,24.0,0.,24.0
1979-07-19 02:25:31.780 ,1,0,0.,24.0,0.,24.0
1979-07-19 02:25:55.780 ,2,1,0.,24.0,0.,24.0
1979-07-19 02:26:19.780 ,2,0,0.,24.0,0.,24.0
1979-07-19 02:26:43.780 ,3,1,0.,24.0,0.,24.0
1979-07-19 02:27:07.780 ,3,0,0.,24.0,0.,24.0
1979-07-19 02:27:31.780 ,4,1,0.,24.0,0.,24.0
1979-07-19 02:27:55.780 ,0,0,,0,,0
1979-07-19 02:28:19.780 ,5,1,0.,24.0,0.,24.0
1979-07-19 02:28:43.780 ,5,0,0.,24.0,0.,24.0
1979-07-19 02:29:07.780 ,6,1,0.,24.0,0.,24.0
1979-07-19 02:29:31.780 ,6,0,0.,24.0,0.,24.0
1979-07-19 02:29:55.780 ,7,1,0.,24.0,0.,24.0
1979-07-19 02:30:19.780 ,7,0,0.,24.0,0.,24.0
1979-07-19 02:30:43.780 ,7,1,0.,24.0,0.,24.0
1979-07-19 02:31:07.780 ,7,0,0.,24.0,0.,24.0
1979-07-19 02:31:31.780 ,6,1,0.,24.0,0.,24.0
1979-07-19 02:31:55.780 ,6,0,0.,24.0,0.,24.0
1979-07-19 02:32:19.780 ,5,1,0.,24.0,0.,24.0
1979-07-19 02:32:43.780 ,5,0,0.,24.0,0.,24.0
1979-07-19 02:33:07.780 ,4,1,0.,24.0,0.,24.0
1979-07-19 02:33:31.780 ,4,0,0.,24.0,0.,24.0
1979-07-19 02:33:55.780 ,3,1,0.,24.0,0.,24.0
1979-07-19 02:34:19.780 ,3,0,0.,24.0,0.,24.0
1979-07-19 02:34:43.780 ,2,1,0.,24.0,0.,24.0
1979-07-19 02:35:07.780 ,2,0,0.,24.0,0.,24.0
1979-07-19 02:35:31.780 ,1,1,0.,24.0,0.,24.0
1979-07-19 02:35:55.780 ,1,0,0.,24.0,0.,24.0
1979-07-19 02:36:19.780 ,0,1,0.,24.0,0.,24.0
1979-07-19 02:36:43.780 ,0,0,0.,24.0,0.,24.0
1979-07-19 02:37:07.780 ,0,1,0.,24.0,0.,24.0
1979-07-19 02:37:31.780 ,0,0,0.,24.0,0.,24.0
1979-07-19 02:37:55.780 ,1,1,0.,24.0,0.,24.0
1979-07-19 02:38:19.780 ,1,0,0.,24.0,0.,24.0
1979-07-19 02:38:43.780 ,2,1,0.,24.0,0.,24.0
1979-07-19 02:39:07.780 ,2,0,0.,24.0,0.,24.0
1979-07-19 02:39:31.780 ,3,1,0.,24.0,0.,24.0
1979-07-19 02:39:55.780 ,3,0,0.,24.0,0.,24.0
1979-07-19 02:40:19.780 ,4,1,0.,24.0,0.,24.0
1979-07-19 02:40:43.780 ,4,0,0.,24.0,0.,24.0
1979-07-19 02:41:07.780 ,5,1,0.,24.0,0.,24.0
1979-07-19 02:41:31.780 ,5,0,0.,24.0,0.,24.0
1979-07-19 02:41:55.780 ,6,1,0.,24.0,0.,24.0
1979-07-19 02:42:19.780 ,6,0,0.,24.0,0.,24.0
1979-07-19 02:42:43.780 ,7,0,0.,24.0,0.,24.0
1979-07-19 02:43:07.780 ,7,0,0.,24.0,0.,24.0
1979-07-19 02:43:31.780 ,3,1,0.,24.0,0.,24.0
1979-07-19 02:43:55.780 ,0,1,0.,24.0,0.,24.0
1979-07-19 02:44:19.780 ,4,1,0.,24.0,0.,24.0
1979-07-19 02:44:43.780 ,7,1,0.,24.0,0.,24.0
1979-07-19 02:45:07.780 ,3,1,0.,24.0,0.,24.0
1979-07-19 02:45:31.780 ,0,1,0.,24.0,0.,24.0
1979-07-19 02:46:43.780 ,0,0,0.,24.0,0.,24.0
1979-07-19 02:47:07.780 ,0,1,0.,24.0,0.,24.0
1979-07-19 02:47:31.780 ,4,1,0.,24.0,0.,24.0
1979-07-19 02:47:55.780 ,7,1,0.,24.0,0.,24.0
1979-07-19 02:48:19.780 ,3,1,0.,24.0,0.,24.0
1979-07-19 02:48:43.780 ,0,1,0.,24.0,0.,24.0
1979-07-19 02:49:07.780 ,4,1,0.,24.0,0.,24.0
1979-07-19 02:49:31.780 ,7,1,0.,24.0,0.,24.0
1979-07-19 02:49:55.780 ,3,1,0.,24.0,0.,24.0
1979-07-19 02:50:19.780 ,0,1,0.,24.0,0.,24.0
1979-07-19 02:50:43.780 ,4,1,0.,24.0,0.,24.0
1979-07-19 02:51:07.780 ,7,1,0.,24.0,0.,24.0
1979-07-19 02:51:31.780 ,3,1,0.,24.0,0.,24.0
1979-07-19 02:51:55.780 ,0,1,0.,24.0,0.,24.0
1979-07-19 02:52:19.780 ,4,1,0.,24.0,0.,24.0
1979-07-19 02:52:43.780 ,7,1,0.,24.0,0.,24.0
1979-07-19 02:53:07.780 ,3,1,0.,24.0,0.,24.0
1979-07-19 02:53:31.780 ,0,1,0.,24.0,0.,24.0
1979-07-19 02:53:55.780 ,0,0,0.,24.0,0.,24.0
1979-07-19 02:54:19.780 ,0,0,0.,24.0,0.,24.0
1979-07-19 02:54:43.780 ,5,1,0.,24.0,0.,24.0
1979-07-19 02:55:07.780 ,5,0,0.,24.0,0.,24.0
1979-07-19 02:55:31.780 ,4,1,0.,24.0,0.,24.0
1979-07-19 02:55:55.780 ,4,0,0.,24.0,0.,24.0
1979-07-19 02:56:19.780 ,3,1,0.,24.0,0.,24.0
1979-07-19 02:56:43.780 ,3,0,0.,24.0,0.,24.0
1979-07-19 02:57:07.780 ,2,1,0.,24.0,0.,24.0
1979-07-19 02:57:31.780 ,2,0,0.,24.0,0.,24.0
1979-07-19 02:57:55.780 ,1,1,0.,24.0,0.,24.0
1979-07-19 02:58:19.780 ,1,0,0.,24.0,0.,24.0
1979-07-19 02:58:43.780 ,0,1,0.,24.0,0.,24.0
1979-07-19 02:59:07.780 ,0,0,0.,24.0,0.,24.0
1979-07-19 02:59:31.780 ,0,1,0.,24.0,0.,24.0
1979-07-19 02:59:55.780 ,0,0,0.,24.0,0.,24.0
1979-07-19 03:00:19.780 ,1,1,0.,24.0,0.,24.0
